Regional Weather Roundup
Issued by NWS

Home | Current Version | Previous Version | Text Only | Print | Product List | Glossary Off
Versions: 1 2 3 4 5 6 7 8 9 10 11 12 13 14 15 16 17 18 19 20 21 22 23 24 25 26 27 28 29 30 31 32 33 34 35 36 37 38 39 40 41 42 43 44 45 46 47 48 49 50

000
ASUS43 KDTX 191510
RWRMI
MICHIGAN HOURLY REGIONAL WEATHER ROUNDUP
NATIONAL WEATHER SERVICE DETROIT/PONTIAC MI
1100 AM EDT SAT AUG 19 2017

NOTE: "FAIR" INDICATES FEW OR NO CLOUDS BELOW 12,000 FEET WITH NO
SIGNIFICANT WEATHER AND/OR OBSTRUCTION TO VISIBILITY.

MIZ047>049-052>055-059>063-066>070-074>076-081>083-191600-
SOUTHEAST LOWER MICHIGAN

CITY           SKY/WX    TMP DP  RH WIND       PRES   REMARKS
ADRIAN         PTSUNNY   74  65  73 N7        29.93R
ALMA           MOSUNNY   70  58  65 W12G17    29.94R
ANN ARBOR      MOSUNNY   74  62  66 W8G17     29.92R
BAD AXE        CLOUDY    67  60  79 W9        29.90R
CARO           MOSUNNY   69  59  70 W8        29.90S
DETROIT CITY   PTSUNNY   72  60  66 W8        29.91R
DETROIT        PTSUNNY   73  62  68 NW12      29.92R
FLINT          MOSUNNY   70  58  65 NW10      29.92R
GROSSE ILE     MOSUNNY   74  64  70 NW7       29.91S
HILLSDALE      CLOUDY    70  61  73 NW8       29.94R
HOWELL         SUNNY     71  57  60 NW9       29.93R

CITY           SKY/WX    TMP DP  RH WIND       PRES   REMARKS
JACKSON        PTSUNNY   72  59  63 NW9       29.94R
LAMBERTVILLE   MOSUNNY   73  66  79 W3        29.92R
LANSING        SUNNY     72  56  57 NW10      29.95R
LAPEER         FAIR      70  57  63 N9G16     29.92R
MASON          SUNNY     73  56  55 NW9       29.94R
MONROE         MOSUNNY   74  65  74 W7        29.91R
MT. CLEMENS    MOSUNNY   73  61  66 NW9       29.90R
PONTIAC        PTSUNNY   71  58  63 NW9G16    29.91R
PORT HOPE        N/A     68  59  73 W12       29.86R
PORT HURON     PTSUNNY   70  59  68 W6        29.90S
TRI CITIES     MOSUNNY   71  60  68 NW13      29.92R
MIDLAND        FAIR      71  59  64 W12       29.91R
TROY           PTSUNNY   72  59  63 NW7       29.93R
SAGINAW HB     MOSUNNY   70  59  68 NW14G20   29.91R
$$
MIZ043>046-050>051-056>058-064>065-071>073-077>080-191600-
SOUTHWEST LOWER MICHIGAN

CITY           SKY/WX    TMP DP  RH WIND       PRES   REMARKS
BATTLE CREEK   SUNNY     73  58  59 N9        29.96R
BENTON HARBOR  SUNNY     74  59  59 VRB7      29.96R
BIG RAPIDS     SUNNY     70  56  63 W7G17     29.93S
COLDWATER      PTSUNNY   73  62  68 NW6       29.95R
FREMONT        FAIR      71  61  70 W7        29.94S
HOLLAND        SUNNY     73  59  61 NE3       29.96R
GRAND RAPIDS   MOSUNNY   72  56  57 NW7       29.95R
IONIA          FAIR      70  56  61 W7        29.94R
KALAMAZOO      MOSUNNY   75  55  49 N7        29.96R
LUDINGTON      SUNNY     71  62  73 W5        29.92S
MARSHALL       MOSUNNY   73  58  58 W10       29.94R
MOUNT PLEASANT PTSUNNY   72  58  62 NW6       29.92S
MUSKEGON       MOSUNNY   74  57  55 W8        29.94S
SOUTH HAVEN    SUNNY     74  57  55 N6        29.96R
$$
MIZ016>042-191600-
NORTHERN LOWER MICHIGAN

CITY           SKY/WX    TMP DP  RH WIND       PRES   REMARKS
ALPENA         MOSUNNY   70  59  68 W7        29.87R
BEAVER ISLAND  MOSUNNY   70  59  69 SW8       29.88R
BELLAIRE       CLOUDY    68  59  73 W6        29.90S
CADILLAC       MOSUNNY   72  58  62 W7        29.93R
CHARLEVOIX     CLOUDY    69  60  74 SW7       29.92S
FRANKFORT      SUNNY     71  63  75 SW7       29.91R
GAYLORD        PTSUNNY   64  56  75 W9        29.91S
GRAYLING       PTSUNNY   68  57  68 NW10G16   29.92S
HARBOR SPRINGS CLOUDY    66  60  80 W5        29.89R
HOUGHTON LAKE  MOSUNNY   67  57  70 W6G17     29.93R
MANISTEE       MOSUNNY   71  62  73 W9        29.92R
OSCODA         PTSUNNY   71  57  60 NW13G24   29.87R
PELLSTON       CLOUDY    69  59  70 W8        29.89R
ROGERS CITY    MOSUNNY   68  58  68 NW9       29.88R
TRAVERSE CITY  MOSUNNY   71  57  61 W8        29.89S
$$
MIZ007>008-015-191600-
EASTERN UPPER MICHIGAN

CITY           SKY/WX    TMP DP  RH WIND       PRES   REMARKS
KINROSS        MOSUNNY   66  59  78 W7        29.86R
MACKINAC ISLAN PTSUNNY   65  62  89 SW9       29.87S
NEWBERRY       PTSUNNY   67  62  83 SW6       29.86S
S. S. MARIE    PTSUNNY   64  60  87 W8        29.84S
MUNISING         N/A     70  65  84 NE6       29.84R
$$
MIZ004>006-011>014-085-191600-
CENTRAL UPPER MICHIGAN

CITY           SKY/WX    TMP DP  RH WIND       PRES   REMARKS
MANISTIQUE     SUNNY     69  60  74 S3        29.85S
ESCANABA       SUNNY     69  60  73 W7        29.87R
MENOMINEE      SUNNY     69  61  75 VRB3      29.89S
SAWYER-GWINN   SUNNY     68  59  73 W9        29.87R
$$
MIZ001>003-009>011-084-191600-
WESTERN UPPER MICHIGAN

CITY           SKY/WX    TMP DP  RH WIND       PRES   REMARKS
IRON MOUNTAIN  SUNNY     70  58  65 W9        29.88S
HOUGHTON       MOSUNNY   68  59  73 NW14      29.85R
COPPER HARBOR    N/A     69  59  70 N12       29.81S
IRONWOOD       SUNNY     70  60  70 W9        29.91R
$$

ABBREVIATIONS USED IN REMARKS
   TC - TEMPERATURE IN CELSIUS
  WCI - WIND CHILL INDEX
   HX - HEAT INDEX
  VSB - VISIBILITY





USA.gov is the U.S. government's official web portal to all federal, state and local government web resources and services.